{"data":{"norad_id":64888,"epoch":"2026-09-21T21:14:22.402464Z","epoch_age_seconds":51680,"freshness":"FRESH","line1":"1 64888U 25155N   26264.88498151  .00031355  00000+0  60228-3 0  9993","line2":"2 64888  97.4560 238.3240 0007169 142.7982 217.3766 15.47874626 95865","mean_motion":15.47874626,"eccentricity":0.0007169,"inclination_deg":97.456,"raan_deg":238.324,"arg_perigee_deg":142.7982,"mean_anomaly_deg":217.3766,"bstar":0.00060228,"rev_number":9586,"period_min":93.030790466618,"perigee_km":418.06893186819,"apogee_km":427.82032270539,"semimajor_km":6801.0816272868,"source":"CELESTRAK","updated_at":"2026-09-22T09:00:30.016993Z"}}